,,,PA_Meas_PMT16A,,PR_Meas_QMR101_102,,RH_Meas_QMH101,,SR_Meas_QMS101,,TA_Meas_QMH101,,GenWind,,GenWind,
date,time,status,PA,status,PR,status,RH,status,SR,status,TA,status,DirAvg,status,SpdAvg,
2010-07-25, 00:00:05,VALID,1004.21,VALID,0,INVALID,109.688,VALID,0,VALID,24.6556,VALID,355,VALID,0.34375,
2010-07-25, 00:01:05,VALID,1004.16,VALID,0,INVALID,109.772,VALID,0,VALID,24.6185,VALID,16,VALID,0.858984,
2010-07-25, 00:02:05,VALID,1004.17,VALID,0,INVALID,109.734,VALID,0,VALID,24.6593,VALID,16,VALID,0.308984,
2010-07-25, 00:03:05,VALID,1004.15,VALID,0,INVALID,109.741,VALID,0,VALID,24.638,VALID,16,VALID,0.20625,
2010-07-25, 00:04:05,VALID,1004.12,VALID,0,INVALID,109.741,VALID,0,VALID,24.6593,VALID,2,VALID,0.413281,
2010-07-25, 00:05:05,VALID,1004.15,VALID,0,INVALID,109.749,VALID,0,VALID,24.638,VALID,2,VALID,0.493359,
2010-07-25, 00:06:05,VALID,1004.14,VALID,0,INVALID,109.719,VALID,0,VALID,24.6166,VALID,2,VALID,0.580859,
2010-07-25, 00:07:05,VALID,1004.13,VALID,0,INVALID,109.703,VALID,0,VALID,24.6769,VALID,2,VALID,0.230469,
2010-07-25, 00:08:05,VALID,1004.12,VALID,0,INVALID,109.635,VALID,0,VALID,24.6769,VALID,2,VALID,0.464844,
2010-07-25, 00:09:05,VALID,1004.12,VALID,0,INVALID,109.596,VALID,0,VALID,24.6574,VALID,2,VALID,0.628125,
2010-07-25, 00:10:05,VALID,1004.12,VALID,0,INVALID,109.65,VALID,0,VALID,24.6983,VALID,2,VALID,0.769141,
2010-07-25, 00:11:05,VALID,1004.11,VALID,0,INVALID,109.604,VALID,0,VALID,24.6964,VALID,20,VALID,0.853906,
2010-07-25, 00:12:05,VALID,1004.15,VALID,0,INVALID,109.52,VALID,0,VALID,24.7159,VALID,29,VALID,0.444922,
2010-07-25, 00:13:05,VALID,1004.15,VALID,0,INVALID,109.406,VALID,0,VALID,24.7353,VALID,21,VALID,0.703906,
2010-07-25, 00:14:05,VALID,1004.15,VALID,0,INVALID,109.383,VALID,0,VALID,24.7159,VALID,20,VALID,0.312891,
2010-07-25, 00:15:05,VALID,1004.15,VALID,0,INVALID,109.421,VALID,0,VALID,24.6769,VALID,2,VALID,0.698438,
2010-07-25, 00:16:05,VALID,1004.14,VALID,0,INVALID,109.482,VALID,0,VALID,24.7159,VALID,7,VALID,0.591406,
2010-07-25, 00:17:05,VALID,1004.12,VALID,0,INVALID,109.452,VALID,0,VALID,24.7335,VALID,18,VALID,0.685547,
2010-07-25, 00:18:05,VALID,1004.15,VALID,0,INVALID,109.23,VALID,0.100563,VALID,24.8113,VALID,11,VALID,1.03711,
2010-07-25, 00:19:05,VALID,1004.13,VALID,0,VALID,104,VALID,0,VALID,24.8892,VALID,35,VALID,0.725,
2010-07-25, 00:20:05,VALID,1004.15,VALID,0,VALID,104,VALID,0.100563,VALID,24.9476,VALID,32,VALID,0.499219,
2010-07-25, 00:21:05,VALID,1004.15,VALID,0,VALID,102.601,VALID,0.100563,VALID,25.006,VALID,18,VALID,0.84375,
2010-07-25, 00:22:05,VALID,1004.15,VALID,0,VALID,96.0476,VALID,0.100563,VALID,25.0839,VALID,16,VALID,0.416016,
2010-07-25, 00:23:05,VALID,1004.16,VALID,0,VALID,92.8511,VALID,0,VALID,25.1229,VALID,26,VALID,0.34375,
2010-07-25, 00:24:05,VALID,1004.13,VALID,0,VALID,91.7449,VALID,0,VALID,25.1618,VALID,26,VALID,0.322656,
2010-07-25, 00:25:05,VALID,1004.16,VALID,0,VALID,91.6229,VALID,0,VALID,25.1618,VALID,26,VALID,0.108984,
2010-07-25, 00:26:05,VALID,1004.15,VALID,0,VALID,91.6915,VALID,0.100563,VALID,25.1618,VALID,25,VALID,0.667969,
2010-07-25, 00:27:05,VALID,1004.15,VALID,0,VALID,91.0888,VALID,0.100563,VALID,25.1813,VALID,25,VALID,0.551953,
2010-07-25, 00:28:05,VALID,1004.14,VALID,0,VALID,90.8142,VALID,0,VALID,25.1813,VALID,25,VALID,0.512891,
2010-07-25, 00:29:04,VALID,1004.15,VALID,0,VALID,90.8371,VALID,0.100563,VALID,25.1813,VALID,25,VALID,0.366406,
2010-07-25, 00:30:04,VALID,1004.14,VALID,0,VALID,90.8523,VALID,0,VALID,25.1423,VALID,5,VALID,0.632813,
2010-07-25, 00:31:04,VALID,1004.11,VALID,0,VALID,91.0431,VALID,0,VALID,25.1229,VALID,23,VALID,0.753125,
2010-07-25, 00:32:04,VALID,1004.09,VALID,0,VALID,91.1193,VALID,0,VALID,25.1637,VALID,31,VALID,0.721094,
2010-07-25, 00:33:04,VALID,1004.09,VALID,0,VALID,91.4092,VALID,0,VALID,25.1248,VALID,23,VALID,0.747656,
2010-07-25, 00:34:04,VALID,1004.09,VALID,0,VALID,91.8212,VALID,0.100563,VALID,25.1034,VALID,21,VALID,0.657031,
2010-07-25, 00:35:04,VALID,1004.11,VALID,0,VALID,91.4779,VALID,0.100563,VALID,25.1248,VALID,22,VALID,0.832031,
2010-07-25, 00:36:04,VALID,1004.08,VALID,0,VALID,91.6229,VALID,0,VALID,25.1229,VALID,31,VALID,0.407422,
2010-07-25, 00:37:04,VALID,1004.07,VALID,0,VALID,91.6,VALID,0,VALID,25.1034,VALID,13,VALID,0.641016,
2010-07-25, 00:38:04,VALID,1004.1,VALID,0,VALID,91.5008,VALID,0.100563,VALID,25.1034,VALID,2,VALID,0.511719,
2010-07-25, 00:39:04,VALID,1004.09,VALID,0,VALID,91.2033,VALID,0,VALID,25.1248,VALID,2,VALID,0.399609,
2010-07-25, 00:40:04,VALID,1004.09,VALID,0,VALID,91.0431,VALID,0,VALID,25.1229,VALID,18,VALID,0.736719,
2010-07-25, 00:41:04,VALID,1004.07,VALID,0,VALID,90.6387,VALID,0.100563,VALID,25.1618,VALID,21,VALID,0.158203,
2010-07-25, 00:42:04,VALID,1004.1,VALID,0,VALID,90.4251,VALID,0,VALID,25.1637,VALID,21,VALID,0.133984,
2010-07-25, 00:43:04,VALID,1004.08,VALID,0,VALID,90.4862,VALID,0,VALID,25.1229,VALID,21,VALID,0.246094,
2010-07-25, 00:44:04,VALID,1004.1,VALID,0,VALID,90.6769,VALID,0,VALID,25.1442,VALID,21,VALID,0.425391,
2010-07-25, 00:45:04,VALID,1004.06,VALID,0,VALID,91.2414,VALID,0,VALID,25.0839,VALID,21,VALID,0.667969,
2010-07-25, 00:46:04,VALID,1004.05,VALID,0,VALID,92.4925,VALID,0,VALID,25.0663,VALID,21,VALID,0.366797,
2010-07-25, 00:47:04,VALID,1003.99,VALID,0,VALID,97.1767,VALID,0,VALID,24.9866,VALID,21,VALID,0.424609,
2010-07-25, 00:48:04,VALID,1003.97,VALID,0,VALID,103.913,VALID,0,VALID,24.9087,VALID,21,VALID,0.352734,
2010-07-25, 00:49:04,VALID,1003.96,VALID,0,VALID,104,VALID,0,VALID,24.8503,VALID,21,VALID,0.353516,
2010-07-25, 00:50:04,VALID,1003.96,VALID,0,VALID,104,VALID,0,VALID,24.8113,VALID,21,VALID,0.789453,
2010-07-25, 00:51:04,VALID,1003.97,VALID,0,VALID,104,VALID,0,VALID,24.7724,VALID,21,VALID,0.566406,
2010-07-25, 00:52:04,VALID,1003.97,VALID,0,VALID,104,VALID,0,VALID,24.7743,VALID,21,VALID,0.494531,
2010-07-25, 00:53:04,VALID,1003.96,VALID,0,INVALID,109.055,VALID,0,VALID,24.7335,VALID,17,VALID,0.607031,
2010-07-25, 00:54:04,VALID,1003.92,VALID,0,INVALID,109.177,VALID,0,VALID,24.7743,VALID,4,VALID,0.696094,
2010-07-25, 00:55:04,VALID,1003.96,VALID,0,INVALID,109.116,VALID,0,VALID,24.8327,VALID,4,VALID,0,
2010-07-25, 00:56:04,VALID,1003.99,VALID,0,VALID,104,VALID,0,VALID,24.8113,VALID,4,VALID,0.480859,
2010-07-25, 00:57:04,VALID,1004,VALID,0,VALID,104,VALID,0,VALID,24.8503,VALID,25,VALID,0.790625,
2010-07-25, 00:58:04,VALID,1004,VALID,0,VALID,104,VALID,0,VALID,24.9106,VALID,25,VALID,0.217969,
2010-07-25, 00:59:04,VALID,1003.99,VALID,0,VALID,104,VALID,0,VALID,24.93,VALID,25,VALID,0.578125,
2010-07-25, 01:00:04,VALID,1004,VALID,0,VALID,104,VALID,0,VALID,24.9282,VALID,25,VALID,0.169141,
2010-07-25, 01:01:04,VALID,1003.97,VALID,0,VALID,104,VALID,0,VALID,24.9495,VALID,25,VALID,0.30625,
2010-07-25, 01:02:04,VALID,1003.94,VALID,0,VALID,104,VALID,0,VALID,25.0079,VALID,71,VALID,0.379687,
2010-07-25, 01:03:04,VALID,1003.95,VALID,0,VALID,104,VALID,0,VALID,25.0469,VALID,32,VALID,0.552734,
2010-07-25, 01:04:04,VALID,1003.95,VALID,0,VALID,104,VALID,0,VALID,25.0858,VALID,40,VALID,0.458984,
2010-07-25, 01:05:04,VALID,1003.91,VALID,0,VALID,103.943,VALID,0,VALID,25.0839,VALID,52,VALID,0.0378906,
2010-07-25, 01:06:04,VALID,1003.87,VALID,0,VALID,101.876,VALID,0,VALID,25.1248,VALID,52,VALID,0.376563,
2010-07-25, 01:07:04,VALID,1003.87,VALID,0,VALID,101.83,VALID,0,VALID,25.1442,VALID,52,VALID,0.312891,
2010-07-25, 01:08:04,VALID,1003.88,VALID,0,VALID,103.57,VALID,0,VALID,25.1053,VALID,52,VALID,0.195313,
2010-07-25, 01:09:04,VALID,1003.84,VALID,0,VALID,104,VALID,0,VALID,25.0644,VALID,52,VALID,0.183984,
2010-07-25, 01:10:04,VALID,1003.83,VALID,0,VALID,104,VALID,0,VALID,25.045,VALID,52,VALID,0.197656,
2010-07-25, 01:11:04,VALID,1003.79,VALID,0,VALID,104,VALID,0,VALID,25.0469,VALID,52,VALID,0.428125,
2010-07-25, 01:12:04,VALID,1003.78,VALID,0,VALID,104,VALID,0,VALID,25.0079,VALID,52,VALID,0.24375,
2010-07-25, 01:13:04,VALID,1003.78,VALID,0,VALID,104,VALID,0,VALID,24.9671,VALID,52,VALID,0.291406,
2010-07-25, 01:14:04,VALID,1003.76,VALID,0,VALID,104,VALID,0,VALID,24.9282,VALID,52,VALID,0.200781,
2010-07-25, 01:15:04,VALID,1003.77,VALID,0,VALID,104,VALID,0,VALID,24.8911,VALID,52,VALID,0.195313,
2010-07-25, 01:16:04,VALID,1003.76,VALID,0,INVALID,109.047,VALID,0,VALID,24.8503,VALID,52,VALID,0.226172,
2010-07-25, 01:17:04,VALID,1003.75,VALID,0,INVALID,109.07,VALID,0,VALID,24.8716,VALID,52,VALID,0,
2010-07-25, 01:18:04,VALID,1003.74,VALID,0,INVALID,109.131,VALID,0,VALID,24.8522,VALID,52,VALID,0.172656,
2010-07-25, 01:19:04,VALID,1003.73,VALID,0,INVALID,109.085,VALID,0,VALID,24.8503,VALID,52,VALID,0,
2010-07-25, 01:20:04,VALID,1003.72,VALID,0,INVALID,109.04,VALID,0,VALID,24.8697,VALID,52,VALID,0.244531,
2010-07-25, 01:21:04,VALID,1003.76,VALID,0,VALID,104,VALID,0,VALID,24.9106,VALID,52,VALID,0,
2010-07-25, 01:22:04,VALID,1003.73,VALID,0,VALID,104,VALID,0,VALID,24.8911,VALID,52,VALID,0,
2010-07-25, 01:23:04,VALID,1003.69,VALID,0,VALID,104,VALID,0,VALID,24.8911,VALID,52,VALID,0,
2010-07-25, 01:24:04,VALID,1003.69,VALID,0,VALID,104,VALID,0,VALID,24.8503,VALID,52,VALID,0,
2010-07-25, 01:25:04,VALID,1003.69,VALID,0,VALID,104,VALID,0,VALID,24.8716,VALID,52,VALID,0.00585938,
2010-07-25, 01:26:04,VALID,1003.69,VALID,0,INVALID,109.017,VALID,0,VALID,24.8522,VALID,52,VALID,0.346875,
2010-07-25, 01:27:04,VALID,1003.72,VALID,0,INVALID,109.093,VALID,0,VALID,24.7937,VALID,66,VALID,0.561719,
2010-07-25, 01:28:04,VALID,1003.71,VALID,0,INVALID,109.276,VALID,0,VALID,24.7353,VALID,118,VALID,0.643359,
2010-07-25, 01:29:04,VALID,1003.73,VALID,0,INVALID,109.49,VALID,0,VALID,24.6945,VALID,121,VALID,0.525391,
2010-07-25, 01:30:04,VALID,1003.68,VALID,0,INVALID,109.665,VALID,0,VALID,24.6769,VALID,121,VALID,0.487109,
2010-07-25, 01:31:04,VALID,1003.68,VALID,0,INVALID,109.764,VALID,0,VALID,24.6361,VALID,179,VALID,0.737891,
2010-07-25, 01:32:04,VALID,1003.68,VALID,0,INVALID,109.864,VALID,0,VALID,24.6361,VALID,192,VALID,1.04961,
2010-07-25, 01:33:04,VALID,1003.65,VALID,0,INVALID,109.917,VALID,0,VALID,24.6556,VALID,162,VALID,0.870313,
2010-07-25, 01:34:04,VALID,1003.6,VALID,0,INVALID,109.909,VALID,0,VALID,24.6769,VALID,162,VALID,0.253906,
2010-07-25, 01:35:04,VALID,1003.6,VALID,0,INVALID,109.856,VALID,0,VALID,24.6556,VALID,162,VALID,0,
2010-07-25, 01:36:04,VALID,1003.59,VALID,0,INVALID,109.841,VALID,0,VALID,24.675,VALID,162,VALID,0,
2010-07-25, 01:37:04,VALID,1003.58,VALID,0,INVALID,109.78,VALID,0,VALID,24.6769,VALID,89,VALID,0.214453,
2010-07-25, 01:38:04,VALID,1003.54,VALID,0,INVALID,109.749,VALID,0,VALID,24.638,VALID,89,VALID,0,
2010-07-25, 01:39:04,VALID,1003.56,VALID,0,INVALID,109.734,VALID,0.100563,VALID,24.5777,VALID,74,VALID,0.559766,
2010-07-25, 01:40:04,VALID,1003.58,VALID,0,INVALID,109.764,VALID,0,VALID,24.5406,VALID,38,VALID,0.728906,
2010-07-25, 01:41:04,VALID,1003.57,VALID,0,INVALID,109.841,VALID,0,VALID,24.4822,VALID,35,VALID,0.751953,
2010-07-25, 01:42:04,VALID,1003.59,VALID,0,INVALID,109.925,VALID,0,VALID,24.4433,VALID,35,VALID,0.735547,
2010-07-25, 01:43:04,VALID,1003.56,VALID,0,INVALID,109.986,VALID,0,VALID,24.4238,VALID,35,VALID,0.432813,
2010-07-25, 01:44:04,VALID,1003.54,VALID,0,INVALID,110.031,VALID,0,VALID,24.4043,VALID,35,VALID,0.311328,
2010-07-25, 01:45:04,VALID,1003.53,VALID,0,INVALID,110.047,VALID,0,VALID,24.4043,VALID,35,VALID,0,
2010-07-25, 01:46:04,VALID,1003.53,VALID,0,INVALID,110.054,VALID,0,VALID,24.3849,VALID,35,VALID,0.314844,
2010-07-25, 01:47:04,VALID,1003.57,VALID,0,INVALID,110.047,VALID,0,VALID,24.4043,VALID,15,VALID,0.630469,
2010-07-25, 01:48:04,VALID,1003.54,VALID,0,INVALID,110.008,VALID,0,VALID,24.4043,VALID,11,VALID,0.714063,
2010-07-25, 01:49:04,VALID,1003.52,VALID,0,INVALID,110.008,VALID,0,VALID,24.4043,VALID,10,VALID,0.755078,
2010-07-25, 01:50:04,VALID,1003.49,VALID,0,INVALID,109.986,VALID,0,VALID,24.4238,VALID,10,VALID,0.390234,
2010-07-25, 01:51:04,VALID,1003.47,VALID,0,INVALID,109.993,VALID,0,VALID,24.4238,VALID,10,VALID,0.304688,
2010-07-25, 01:52:04,VALID,1003.44,VALID,0,INVALID,109.993,VALID,0,VALID,24.4238,VALID,10,VALID,0.367578,
2010-07-25, 01:53:04,VALID,1003.42,VALID,0,INVALID,109.986,VALID,0,VALID,24.4043,VALID,10,VALID,0.3,
2010-07-25, 01:54:04,VALID,1003.46,VALID,0,INVALID,109.932,VALID,0,VALID,24.4025,VALID,10,VALID,0.403125,
2010-07-25, 01:55:04,VALID,1003.49,VALID,0,INVALID,109.879,VALID,0,VALID,24.422,VALID,12,VALID,0.719141,
2010-07-25, 01:56:04,VALID,1003.51,VALID,0,INVALID,109.864,VALID,0,VALID,24.4433,VALID,24,VALID,0.543359,
2010-07-25, 01:57:04,VALID,1003.5,VALID,0,INVALID,109.818,VALID,0,VALID,24.4628,VALID,23,VALID,0.257813,
2010-07-25, 01:58:04,VALID,1003.48,VALID,0,INVALID,109.772,VALID,0,VALID,24.4609,VALID,24,VALID,0.324609,
2010-07-25, 01:59:04,VALID,1003.44,VALID,0,INVALID,109.757,VALID,0,VALID,24.4822,VALID,23,VALID,0.136719,
2010-07-25, 02:00:04,VALID,1003.42,VALID,0,INVALID,109.719,VALID,0,VALID,24.5017,VALID,23,VALID,0.125,
2010-07-25, 02:01:04,VALID,1003.43,VALID,0,INVALID,109.711,VALID,0,VALID,24.5017,VALID,23,VALID,0.0890625,
2010-07-25, 02:02:04,VALID,1003.46,VALID,0,INVALID,109.711,VALID,0,VALID,24.4998,VALID,23,VALID,0,
2010-07-25, 02:03:04,VALID,1003.45,VALID,0,INVALID,109.703,VALID,0,VALID,24.5406,VALID,23,VALID,0,
2010-07-25, 02:04:04,VALID,1003.38,VALID,0,INVALID,109.68,VALID,0,VALID,24.5212,VALID,23,VALID,0,
2010-07-25, 02:05:04,VALID,1003.3,VALID,0,INVALID,109.658,VALID,0,VALID,24.5406,VALID,23,VALID,0,
2010-07-25, 02:06:04,VALID,1003.28,VALID,0,INVALID,109.627,VALID,0,VALID,24.5601,VALID,2,VALID,0.483203,
2010-07-25, 02:07:04,VALID,1003.25,VALID,0,INVALID,109.688,VALID,0,VALID,24.5582,VALID,2,VALID,0.532812,
2010-07-25, 02:08:04,VALID,1003.23,VALID,0,INVALID,109.627,VALID,0,VALID,24.6166,VALID,2,VALID,0.612891,
2010-07-25, 02:09:04,VALID,1003.27,VALID,0,INVALID,109.65,VALID,0,VALID,24.6361,VALID,8,VALID,0.958984,
2010-07-25, 02:10:04,VALID,1003.3,VALID,0,INVALID,109.703,VALID,0,VALID,24.6574,VALID,22,VALID,0.908203,
2010-07-25, 02:11:04,VALID,1003.34,VALID,0,INVALID,109.696,VALID,0,VALID,24.6769,VALID,41,VALID,0.387891,
2010-07-25, 02:12:04,VALID,1003.33,VALID,0,INVALID,109.749,VALID,0,VALID,24.6574,VALID,53,VALID,0,
2010-07-25, 02:13:04,VALID,1003.3,VALID,0,INVALID,109.741,VALID,0,VALID,24.6361,VALID,53,VALID,0,
2010-07-25, 02:14:04,VALID,1003.28,VALID,0,INVALID,109.741,VALID,0,VALID,24.6769,VALID,42,VALID,0,
2010-07-25, 02:15:04,VALID,1003.26,VALID,0,INVALID,109.673,VALID,0,VALID,24.675,VALID,81,VALID,0.851563,
2010-07-25, 02:16:04,VALID,1003.22,VALID,0,INVALID,109.635,VALID,0,VALID,24.7548,VALID,71,VALID,0.219922,
2010-07-25, 02:17:04,VALID,1003.17,VALID,0,INVALID,109.642,VALID,0,VALID,24.8327,VALID,71,VALID,0.185156,
2010-07-25, 02:18:04,VALID,1003.12,VALID,0,INVALID,109.726,VALID,0,VALID,24.9106,VALID,163,VALID,0.708594,
2010-07-25, 02:19:04,VALID,1003.1,VALID,0,INVALID,109.825,VALID,0,VALID,24.9885,VALID,175,VALID,0.301172,
2010-07-25, 02:20:04,VALID,1003.08,VALID,0,INVALID,110.001,VALID,0,VALID,25.0663,VALID,175,VALID,0.155469,
2010-07-25, 02:21:04,VALID,1003.1,VALID,0,INVALID,110.138,VALID,0,VALID,25.1442,VALID,360,VALID,0.848437,
2010-07-25, 02:22:04,VALID,1003.11,VALID,0,INVALID,110.268,VALID,0,VALID,25.1442,VALID,17,VALID,1.1,
2010-07-25, 02:23:04,VALID,1003.1,VALID,0,INVALID,110.237,VALID,0,VALID,25.1034,VALID,8,VALID,0.655078,
2010-07-25, 02:24:04,VALID,1003.12,VALID,0,INVALID,110.192,VALID,0,VALID,25.1248,VALID,7,VALID,0.532812,
2010-07-25, 02:25:04,VALID,1003.12,VALID,0,INVALID,110.153,VALID,0,VALID,25.1053,VALID,6,VALID,0.522656,
2010-07-25, 02:26:04,VALID,1003.11,VALID,0,INVALID,110.153,VALID,0,VALID,25.1053,VALID,6,VALID,0.533594,
2010-07-25, 02:27:04,VALID,1003.09,VALID,0,INVALID,110.138,VALID,0,VALID,25.0644,VALID,360,VALID,0.764844,
2010-07-25, 02:28:04,VALID,1003.07,VALID,0,INVALID,110.153,VALID,0,VALID,25.0858,VALID,2,VALID,0.622266,
2010-07-25, 02:29:04,VALID,1003.06,VALID,0,INVALID,110.138,VALID,0,VALID,25.1053,VALID,2,VALID,0.500781,
2010-07-25, 02:30:04,VALID,1003.06,VALID,0,INVALID,110.184,VALID,0,VALID,25.0839,VALID,6,VALID,0.398047,
2010-07-25, 02:31:04,VALID,1003.02,VALID,0,INVALID,110.199,VALID,0,VALID,25.1248,VALID,6,VALID,0.373828,
2010-07-25, 02:32:04,VALID,1003.03,VALID,0,INVALID,110.169,VALID,0,VALID,25.1423,VALID,6,VALID,0.560547,
2010-07-25, 02:33:04,VALID,1003.01,VALID,0,INVALID,110.161,VALID,0,VALID,25.1637,VALID,360,VALID,0.588281,
2010-07-25, 02:34:04,VALID,1002.97,VALID,0,INVALID,110.138,VALID,0,VALID,25.1637,VALID,355,VALID,0.614062,
2010-07-25, 02:35:04,VALID,1002.99,VALID,0,INVALID,110.131,VALID,0,VALID,25.1832,VALID,352,VALID,0.532422,
2010-07-25, 02:36:04,VALID,1003.02,VALID,0,INVALID,110.153,VALID,0,VALID,25.2027,VALID,352,VALID,0.471484,
2010-07-25, 02:37:04,VALID,1003.01,VALID,0,INVALID,110.138,VALID,0,VALID,25.1832,VALID,352,VALID,0.598047,
2010-07-25, 02:38:04,VALID,1002.99,VALID,0,INVALID,110.146,VALID,0,VALID,25.1832,VALID,352,VALID,0.463672,
2010-07-25, 02:39:04,VALID,1002.99,VALID,0,INVALID,110.169,VALID,0,VALID,25.1637,VALID,352,VALID,0.651953,
2010-07-25, 02:40:04,VALID,1002.99,VALID,0,INVALID,110.184,VALID,0,VALID,25.1034,VALID,352,VALID,0.445703,
2010-07-25, 02:41:04,VALID,1002.98,VALID,0,INVALID,110.214,VALID,0,VALID,25.1248,VALID,352,VALID,0.150391,
2010-07-25, 02:42:04,VALID,1003,VALID,0,INVALID,110.23,VALID,0,VALID,25.1034,VALID,352,VALID,0.141797,
2010-07-25, 02:43:04,VALID,1002.96,VALID,0,INVALID,110.222,VALID,0,VALID,25.1053,VALID,41,VALID,0.114844,
2010-07-25, 02:44:04,VALID,1002.96,VALID,0,INVALID,110.253,VALID,0,VALID,25.1053,VALID,41,VALID,0.302344,
2010-07-25, 02:45:04,VALID,1002.94,VALID,0,INVALID,110.214,VALID,0,VALID,25.0839,VALID,41,VALID,0,
2010-07-25, 02:46:04,VALID,1002.97,VALID,0.5,INVALID,110.199,VALID,0,VALID,25.0858,VALID,36,VALID,0.775391,
2010-07-25, 02:47:04,VALID,1002.98,VALID,0,INVALID,110.138,VALID,0,VALID,25.1053,VALID,21,VALID,0.739062,
2010-07-25, 02:48:04,VALID,1002.97,VALID,0,INVALID,110.047,VALID,0,VALID,25.1034,VALID,52,VALID,0.39375,
2010-07-25, 02:49:04,VALID,1002.95,VALID,0,INVALID,110.024,VALID,0.100563,VALID,25.1618,VALID,353,VALID,0.735156,
2010-07-25, 02:50:04,VALID,1002.96,VALID,0,INVALID,110.008,VALID,0,VALID,25.1813,VALID,357,VALID,0.329688,
2010-07-25, 02:51:04,VALID,1002.92,VALID,0,INVALID,110.008,VALID,0,VALID,25.2221,VALID,357,VALID,0,
2010-07-25, 02:52:04,VALID,1002.96,VALID,0,INVALID,110.031,VALID,0,VALID,25.2611,VALID,22,VALID,0,
2010-07-25, 02:53:04,VALID,1002.96,VALID,0,INVALID,110.1,VALID,0,VALID,25.2806,VALID,96,VALID,1.3082,
2010-07-25, 02:54:04,VALID,1002.97,VALID,0,INVALID,110.184,VALID,0,VALID,25.3584,VALID,85,VALID,0.810547,
2010-07-25, 02:55:04,VALID,1002.97,VALID,0,INVALID,110.283,VALID,0,VALID,25.3974,VALID,84,VALID,0.710547,
2010-07-25, 02:56:04,VALID,1002.97,VALID,0,INVALID,110.314,VALID,0,VALID,25.3955,VALID,71,VALID,0.366797,
2010-07-25, 02:57:04,VALID,1002.97,VALID,0,INVALID,110.306,VALID,0,VALID,25.3974,VALID,71,VALID,0,
2010-07-25, 02:58:04,VALID,1002.97,VALID,0,INVALID,110.283,VALID,0,VALID,25.3779,VALID,71,VALID,0,
2010-07-25, 02:59:04,VALID,1002.98,VALID,0,INVALID,110.275,VALID,0,VALID,25.337,VALID,71,VALID,0,
2010-07-25, 03:00:04,VALID,1002.92,VALID,0,INVALID,110.237,VALID,0,VALID,25.339,VALID,71,VALID,0,
2010-07-25, 03:01:04,VALID,1002.95,VALID,0,INVALID,110.237,VALID,0,VALID,25.3,VALID,71,VALID,0,
2010-07-25, 03:02:04,VALID,1002.91,VALID,0,INVALID,110.26,VALID,0,VALID,25.2592,VALID,71,VALID,0,
2010-07-25, 03:03:04,VALID,1002.92,VALID,0,INVALID,110.283,VALID,0,VALID,25.2416,VALID,71,VALID,0,
2010-07-25, 03:04:04,VALID,1002.93,VALID,0,INVALID,110.268,VALID,0,VALID,25.2027,VALID,40,VALID,0,
2010-07-25, 03:05:04,VALID,1002.95,VALID,0,INVALID,110.268,VALID,0,VALID,25.1618,VALID,39,VALID,0,
2010-07-25, 03:06:04,VALID,1002.93,VALID,0,INVALID,110.26,VALID,0,VALID,25.1229,VALID,35,VALID,0,
2010-07-25, 03:07:04,VALID,1002.94,VALID,0,INVALID,110.214,VALID,0,VALID,25.1229,VALID,35,VALID,0,
2010-07-25, 03:08:04,VALID,1002.94,VALID,0,INVALID,110.169,VALID,0,VALID,25.1248,VALID,18,VALID,0,
2010-07-25, 03:09:04,VALID,1002.92,VALID,0,INVALID,110.131,VALID,0,VALID,25.0839,VALID,7,VALID,0,
2010-07-25, 03:10:04,VALID,1002.94,VALID,0,INVALID,110.108,VALID,0,VALID,25.1053,VALID,8,VALID,0.110937,
2010-07-25, 03:11:04,VALID,1002.9,VALID,0,INVALID,110.069,VALID,0,VALID,25.0839,VALID,16,VALID,0.776953,
2010-07-25, 03:12:04,VALID,1002.88,VALID,0,INVALID,110.054,VALID,0,VALID,25.1053,VALID,18,VALID,0.644531,
2010-07-25, 03:13:04,VALID,1002.92,VALID,0,INVALID,110.024,VALID,0,VALID,25.1053,VALID,18,VALID,0.599609,
2010-07-25, 03:14:04,VALID,1002.92,VALID,0,INVALID,110.054,VALID,0,VALID,25.1248,VALID,25,VALID,0.820313,
2010-07-25, 03:15:04,VALID,1002.93,VALID,0,INVALID,110.062,VALID,0,VALID,25.1229,VALID,28,VALID,0.600781,
2010-07-25, 03:16:04,VALID,1002.91,VALID,0,INVALID,110.108,VALID,0,VALID,25.1442,VALID,18,VALID,0.552734,
2010-07-25, 03:17:04,VALID,1002.92,VALID,0,INVALID,110.092,VALID,0,VALID,25.1229,VALID,19,VALID,0.529688,
2010-07-25, 03:18:04,VALID,1002.9,VALID,0,INVALID,110.123,VALID,0,VALID,25.1442,VALID,46,VALID,0.461328,
2010-07-25, 03:19:04,VALID,1002.89,VALID,0,INVALID,110.123,VALID,0,VALID,25.1442,VALID,47,VALID,0,
2010-07-25, 03:20:04,VALID,1002.89,VALID,0,INVALID,110.138,VALID,0,VALID,25.1442,VALID,59,VALID,0.36875,
2010-07-25, 03:21:04,VALID,1002.88,VALID,0,INVALID,110.146,VALID,0,VALID,25.1229,VALID,59,VALID,0.104297,
2010-07-25, 03:22:04,VALID,1002.89,VALID,0,INVALID,110.123,VALID,0,VALID,25.1248,VALID,74,VALID,0.681641,
2010-07-25, 03:23:04,VALID,1002.88,VALID,0,INVALID,110.169,VALID,0,VALID,25.1034,VALID,86,VALID,0,
2010-07-25, 03:24:04,VALID,1002.91,VALID,0,INVALID,110.161,VALID,0,VALID,25.1442,VALID,85,VALID,0.0757812,
2010-07-25, 03:25:04,VALID,1002.85,VALID,0,INVALID,110.199,VALID,0,VALID,25.1442,VALID,84,VALID,0.169531,
2010-07-25, 03:26:04,VALID,1002.86,VALID,0,INVALID,110.23,VALID,0,VALID,25.1248,VALID,84,VALID,0,
2010-07-25, 03:27:04,VALID,1002.86,VALID,0,INVALID,110.245,VALID,0,VALID,25.1034,VALID,84,VALID,0,
2010-07-25, 03:28:04,VALID,1002.86,VALID,0,INVALID,110.26,VALID,0,VALID,25.1053,VALID,83,VALID,0.104297,
2010-07-25, 03:29:04,VALID,1002.85,VALID,0,INVALID,110.268,VALID,0,VALID,25.0644,VALID,74,VALID,0.151562,
2010-07-25, 03:30:04,VALID,1002.86,VALID,0,INVALID,110.237,VALID,0,VALID,25.0858,VALID,74,VALID,0.178516,
2010-07-25, 03:31:04,VALID,1002.84,VALID,0,INVALID,110.237,VALID,0,VALID,25.0663,VALID,74,VALID,0.33125,
2010-07-25, 03:32:04,VALID,1002.86,VALID,0,INVALID,110.23,VALID,0,VALID,25.0663,VALID,74,VALID,0.226563,
2010-07-25, 03:33:04,VALID,1002.89,VALID,0,INVALID,110.237,VALID,0,VALID,25.0255,VALID,93,VALID,0.200781,
2010-07-25, 03:34:04,VALID,1002.87,VALID,0,INVALID,110.207,VALID,0,VALID,25.0682,VALID,78,VALID,0.544141,
2010-07-25, 03:35:04,VALID,1002.86,VALID,0,INVALID,110.199,VALID,0,VALID,25.0469,VALID,99,VALID,0.528125,
2010-07-25, 03:36:04,VALID,1002.87,VALID,0,INVALID,110.199,VALID,0,VALID,25.0663,VALID,99,VALID,0.280859,
2010-07-25, 03:37:04,VALID,1002.86,VALID,0,INVALID,110.237,VALID,0,VALID,25.045,VALID,82,VALID,0,
2010-07-25, 03:38:04,VALID,1002.86,VALID,0,INVALID,110.237,VALID,0,VALID,25.0663,VALID,76,VALID,0.780078,
2010-07-25, 03:39:04,VALID,1002.85,VALID,0,INVALID,110.26,VALID,0,VALID,25.0858,VALID,74,VALID,0.00195313,
2010-07-25, 03:40:04,VALID,1002.87,VALID,0,INVALID,110.275,VALID,0.100563,VALID,25.0663,VALID,74,VALID,0,
2010-07-25, 03:41:04,VALID,1002.85,VALID,0,INVALID,110.298,VALID,0,VALID,25.0469,VALID,53,VALID,0,
2010-07-25, 03:42:04,VALID,1002.83,VALID,0,INVALID,110.291,VALID,0,VALID,25.0274,VALID,35,VALID,0,
2010-07-25, 03:43:04,VALID,1002.83,VALID,0,INVALID,110.283,VALID,0,VALID,25.0293,VALID,35,VALID,0,
2010-07-25, 03:44:04,VALID,1002.85,VALID,0,INVALID,110.275,VALID,0,VALID,24.9866,VALID,35,VALID,0,
2010-07-25, 03:45:04,VALID,1002.89,VALID,0,INVALID,110.222,VALID,0,VALID,24.9866,VALID,38,VALID,0,
2010-07-25, 03:46:04,VALID,1002.85,VALID,0,INVALID,110.199,VALID,0.100563,VALID,24.9866,VALID,84,VALID,0.472656,